Back to catalog

STARLINK-35915

AliveCommunicationsVLEO
NORAD 66521·PAYLOAD·🇺🇸 United States

Launched Nov 19, 2025 from Cape Canaveral Space Force Station

Loading…

Next Passes (next 24 hours)

TLE

FreshSource: CelesTrak SupGP

Epoch: Sep 14, 2026, 14:41 UTC

1 66521C 25265F   26257.61229167  .00043035  00000+0  15589-2 0  2577
2 66521  43.0001 291.0650 0001222 278.7585 166.1258 15.27553442    10

Track STARLINK-35915 in real time with AllMySat

Download on the App Store